Content
SEND FEEDBACK

Daily
Averages
Monthly
Summary
United States of America

NEWINGTON, GEORGIA


Home > North America > United States > Georgia
Elevation: 135 feet     Latitude: 32 37N     Longitude: 081 28W

WEATHER
 
SELECT A DAY
Number of Records: 246,892;   Date Range: 1/16/04 - 12/23/14
 
SHARE

PRINT THIS DATA

[ ← Previous Day ]
WEATHER ALMANAC - JANUARY 31, 2013
[ Next Day → ]
[ °C ]   °F
Weather ElementAverageHighLow
Temperature48.8 °F56.7 °F (3:35 pm)36.7 °F (10:15 pm)
Dewpoint34.5 °F52 °F (12:35 am)27.7 °F (4:35 pm)
Humidity60.4 %90 % (10:55 pm)33 % (4:15 pm)
Barometer30.05 in30.22 in (11:15 pm)29.79 in (12:35 am)
Wind Speed11.2 mph24.2 mph (3:55 am)
Wind Gust39.1 mph (4:15 am)
Weather ElementAverage
Visibility10 mi
Wind DirectionWSW (233.6 °)

Weather ElementTotal
Precipitation---
Heating Degree Days18.3 (Base 65)
Averaged from 69 records on January 31, 2013
WEATHER CONDITIONS BREAKOUT
WIND DIRECTION BREAKOUT
WEATHER BY HOUR - JANUARY 31, 2013
[ °C ]   °F
Local TimeTemperatureDewpointHumidityBarometerVisibilityWind DirectionWind SpeedGust SpeedPrecipitationEventsConditions
12:35 AM55.6 °F52.0 °F88 %29.79 in10.0 miWest (260°)8.1 mphOvercast
12:55 AM55.8 °F51.3 °F85 %29.79 in10.0 miWest (270°)10.4 mph16.1 mphOvercast
1:15 AM55.9 °F50.5 °F82 %29.80 in10.0 miWest (270°)9.2 mphOvercast
1:35 AM55.9 °F50.9 °F83 %29.81 in10.0 miWest (280°)9.2 mphOvercast
1:55 AM56.3 °F50.5 °F81 %29.82 in10.0 miWest (280°)19.6 mph26.5 mphOvercast
2:35 AM55.2 °F47.3 °F75 %29.84 in10.0 miWest (280°)17.3 mph35.7 mph
2:55 AM54.3 °F46.4 °F75 %29.85 in10.0 miWNW (290°)19.6 mph26.5 mphScattered Clouds
3:15 AM53.6 °F45.0 °F73 %29.86 inWNW (290°)16.1 mph
3:35 AM52.9 °F45.5 °F76 %29.88 in10.0 miNW (310°)21.9 mph32.2 mph
3:55 AM51.8 °F41.9 °F69 %29.90 in10.0 miNW (310°)24.2 mph32.2 mphOvercast
4:15 AM50.4 °F38.1 °F63 %29.92 in10.0 miWNW (300°)20.7 mph39.1 mphMostly Cloudy
4:35 AM49.3 °F36.5 °F61 %29.93 in10.0 miWNW (300°)18.4 mph25.3 mphScattered Clouds
4:55 AM48.6 °F36.3 °F63 %29.92 in10.0 miWNW (290°)13.8 mph21.9 mphClear
5:15 AM48.0 °F36.5 °F64 %29.94 in10.0 miWNW (290°)13.8 mph21.9 mphClear
5:35 AM47.7 °F36.0 °F64 %29.93 in10.0 miWNW (290°)11.5 mphClear
6:15 AM46.4 °F36.5 °F68 %29.97 in10.0 miWest (280°)10.4 mphClear
6:35 AM45.9 °F36.3 °F69 %29.98 in10.0 miWest (280°)10.4 mph19.6 mphClear
6:55 AM45.3 °F36.0 °F70 %30.00 in10.0 miWNW (290°)11.5 mph16.1 mphClear
7:15 AM44.8 °F35.6 °F70 %29.99 in10.0 miWNW (290°)9.2 mphClear
7:35 AM43.9 °F33.8 °F68 %30.01 in10.0 miWNW (290°)16.1 mph23.0 mphClear
7:55 AM43.7 °F33.3 °F67 %30.04 in10.0 miWNW (300°)13.8 mph21.9 mphClear
8:15 AM43.7 °F32.0 °F63 %30.04 in10.0 miNW (310°)17.3 mph29.9 mphClear
8:35 AM44.1 °F33.1 °F65 %30.06 in10.0 miWNW (300°)15.0 mph19.6 mphClear
8:55 AM44.2 °F32.7 °F64 %30.06 in10.0 miNW (310°)13.8 mph21.9 mphClear
9:15 AM44.8 °F32.9 °F63 %30.06 in10.0 miNW (310°)15.0 mph25.3 mphClear
9:35 AM45.3 °F32.7 °F61 %30.07 in10.0 miNW (320°)17.3 mph24.2 mphClear
9:55 AM45.7 °F32.2 °F59 %30.08 in10.0 miNW (310°)16.1 mph24.2 mphClear
10:15 AM46.6 °F32.9 °F59 %30.08 in10.0 miWNW (290°)12.7 mph18.4 mphClear
10:35 AM47.3 °F32.7 °F57 %30.09 in10.0 miWNW (290°)13.8 mph20.7 mphClear
10:55 AM48.2 °F32.4 °F54 %30.09 in10.0 miWNW (290°)13.8 mph20.7 mphClear
11:15 AM48.9 °F32.5 °F53 %30.09 in10.0 miWNW (290°)9.2 mphClear
11:35 AM49.6 °F32.2 °F51 %30.09 in10.0 miWNW (290°)11.5 mph20.7 mphClear
11:55 AM50.9 °F32.0 °F48 %30.10 in10.0 miWest (280°)13.8 mph19.6 mphClear
12:15 PM51.6 °F31.3 °F46 %30.09 in10.0 miWNW (300°)13.8 mph18.4 mphClear
12:35 PM52.5 °F31.5 °F45 %30.09 in10.0 miWNW (300°)13.8 mph23.0 mphClear
12:55 PM53.8 °F30.6 °F41 %30.09 in10.0 miWNW (290°)19.6 mph25.3 mphClear
1:15 PM54.3 °F30.2 °F40 %30.08 in10.0 miWest (280°)16.1 mph25.3 mphClear
1:35 PM54.9 °F30.0 °F39 %30.08 in10.0 miWNW (290°)16.1 mph26.5 mphClear
1:55 PM55.4 °F30.7 °F39 %30.07 in10.0 miNW (310°)17.3 mph24.2 mphClear
2:15 PM55.6 °F28.8 °F36 %30.07 in10.0 miWNW (300°)20.7 mph27.6 mphClear
2:35 PM55.8 °F28.4 °F35 %30.07 in10.0 miWNW (290°)13.8 mph29.9 mphClear
2:55 PM56.3 °F29.8 °F36 %30.07 in10.0 miWNW (300°)13.8 mph19.6 mphClear
3:15 PM56.3 °F28.6 °F35 %30.08 in10.0 miWNW (300°)19.6 mph26.5 mphClear
3:35 PM56.7 °F28.9 °F35 %30.09 in10.0 miWNW (290°)18.4 mph26.5 mphClear
3:55 PM56.5 °F28.2 °F34 %30.09 in10.0 miNW (310°)18.4 mph25.3 mphClear
4:15 PM56.5 °F27.9 °F33 %30.09 in10.0 miWNW (300°)17.3 mph26.5 mphClear
4:35 PM55.9 °F27.7 °F34 %30.09 in10.0 miWNW (290°)19.6 mph26.5 mphClear
4:55 PM55.8 °F28.6 °F35 %30.10 in10.0 miWNW (290°)10.4 mph19.6 mphClear
5:15 PM55.4 °F28.8 °F36 %30.10 in10.0 miNW (310°)9.2 mphClear
5:35 PM54.7 °F28.2 °F36 %30.11 in10.0 miNW (310°)12.7 mph16.1 mphClear
5:55 PM53.1 °F28.9 °F40 %30.11 in10.0 miWNW (290°)6.9 mphClear
6:15 PM51.3 °F30.6 °F45 %30.12 in10.0 miWNW (290°)4.6 mphClear
6:35 PM50.0 °F30.6 °F47 %30.13 in10.0 miWest (280°)5.8 mphClear
6:55 PM49.5 °F30.6 °F48 %30.14 in10.0 miWest (280°)3.5 mphClear
7:15 PM47.5 °F32.4 °F56 %30.14 in10.0 miWNW (290°)3.5 mphClear
7:35 PM45.9 °F32.4 °F59 %30.15 in10.0 miCalmClear
7:55 PM42.1 °F31.3 °F66 %30.16 in10.0 miCalmClear
8:15 PM43.0 °F30.7 °F62 %30.16 in10.0 miCalmClear
8:35 PM43.0 °F34.9 °F73 %30.17 in10.0 miCalmClear
8:55 PM39.2 °F34.0 °F82 %30.18 in10.0 miCalmClear
9:15 PM38.5 °F34.5 °F86 %30.19 in10.0 miCalmClear
9:35 PM40.5 °F35.1 °F81 %30.20 in10.0 miCalmClear
9:55 PM38.5 °F34.7 °F86 %30.20 in10.0 miCalmClear
10:15 PM36.7 °F33.4 °F88 %30.20 in10.0 miCalmClear
10:35 PM39.6 °F33.3 °F78 %30.20 in10.0 miCalmClear
10:55 PM37.0 °F34.3 °F90 %30.21 in10.0 miCalmClear
11:15 PM40.3 °F33.4 °F77 %30.22 in10.0 miCalmClear
11:35 PM37.0 °F31.6 °F81 %30.22 in10.0 miCalmClear
11:55 PM38.3 °F31.6 °F77 %30.22 in10.0 miCalmClear
Hourly data recorded from KJYL, located miles away from Newington, Georgia







STORIES FROM OUR PARTNERS